Temperature
27 28 28 29 28 28 28 28 27 27 26 26 26 25 24 22 22 22 21 20 19 19 18 18 17 17 17 18 18 18 17 18 17 17 16 16 16 15 15 14 14 14 13 13
28 28 29 28 28 27 27 27 27 26 25 26 25 25 24 23 22 22 21 20 20 19 19 18 17 17 17 17 18 18 18 17 17 16 16 16 16 15 15 14 13 13 13 13
28 29 28 28 28 27 28 27 27 26 25 25 25 25 24 23 22 21 21 21 20 20 19 19 18 18 18 18 18 17 17 17 17 16 16 15 15 15 14 14 13 13 12 12
29 29 28 28 28 28 27 27 26 26 26 26 25 25 25 24 23 22 22 21 21 21 20 20 19 18 18 18 18 17 17 17 17 16 16 15 15 15 14 13 13 12 12 11
29 29 28 28 28 27 27 26 26 26 26 26 26 26 25 24 23 24 23 22 22 21 21 20 20 19 19 18 17 17 17 17 16 16 15 15 14 14 14 13 12 12 12 11
29 29 28 28 27 27 26 26 26 26 27 26 25 25 25 25 25 25 24 23 22 22 21 21 20 19 19 18 18 17 17 17 16 16 15 15 14 13 13 12 12 12 12 11
29 29 28 28 27 27 27 27 27 27 26 26 25 26 26 26 25 25 25 24 23 22 22 21 20 20 19 18 18 17 17 16 16 15 15 14 13 13 12 12 12 11 12 11
28 28 29 28 28 28 27 28 26 25 26 27 26 26 27 26 25 24 24 24 23 23 22 21 20 20 19 18 17 17 16 16 15 15 14 14 13 12 12 12 11 11 11 11
28 28 29 28 28 28 28 28 28 27 27 27 27 27 27 26 26 25 24 24 24 23 22 22 21 20 19 18 17 17 16 16 15 14 14 13 12 12 11 11 11 11 10 10
29 27 29 28 28 27 28 28 27 27 26 26 26 27 27 27 26 26 26 25 24 23 23 22 20 19 19 18 17 17 16 15 15 14 13 13 12 11 11 11 10 10 10 10
29 27 28 28 28 28 27 27 27 28 27 26 26 27 28 28 27 27 27 26 25 24 23 21 20 19 18 17 17 16 16 15 14 13 13 12 12 11 11 10 10 10 10 10
28 28 28 28 28 28 28 28 27 26 26 26 26 27 28 28 28 27 27 26 24 23 22 21 20 19 18 17 17 16 15 14 14 13 13 12 11 11 11 10 10 10 10 10
27 27 27 27 27 27 28 28 28 28 27 26 26 27 27 27 27 27 26 25 24 22 21 20 19 18 18 17 16 16 15 14 14 13 12 12 11 11 11 10 10 10 10 9
27 27 27 26 27 28 28 28 27 27 27 27 27 27 28 28 27 27 25 24 23 22 20 20 19 18 18 17 16 16 15 14 14 13 12 12 11 11 10 10 10 10 9 9
27 27 27 28 28 28 28 28 28 27 27 27 27 27 28 28 28 27 25 24 23 21 20 20 19 19 18 17 16 16 15 14 13 13 12 12 11 11 10 10 10 10 9 9
26 26 27 27 28 28 27 28 28 27 27 27 27 27 28 27 26 25 24 23 23 22 21 20 19 18 18 17 16 16 15 14 13 13 12 12 11 11 10 10 10 9 9 9
27 26 26 26 28 27 27 28 28 28 28 27 27 28 28 27 26 25 24 23 23 22 21 20 19 19 18 17 17 16 15 14 13 13 12 12 11 11 10 10 10 9 9 9
25 25 26 26 26 25 27 29 28 28 28 28 28 28 27 26 25 24 23 23 23 22 21 20 19 19 18 17 16 16 15 14 13 13 12 12 11 11 10 10 10 9 9 9
24 25 26 26 26 26 28 28 28 27 27 28 28 28 27 25 25 25 24 23 22 22 21 20 20 19 18 17 16 16 15 14 13 13 12 12 11 11 10 10 10 9 9 9
23 24 25 25 25 25 27 28 27 27 26 28 27 27 27 25 26 27 25 23 22 21 21 20 19 19 18 17 16 15 15 14 14 13 12 11 11 11 10 10 10 10 9 9
25 24 25 25 25 26 27 26 26 26 26 26 27 26 26 26 26 25 24 23 22 21 20 20 19 18 18 17 16 16 15 14 13 13 12 12 11 11 10 10 10 10 9 9
26 26 25 25 25 25 26 26 26 25 24 25 25 25 25 25 24 23 23 22 21 21 20 20 19 18 18 17 16 16 15 14 13 13 12 12 11 11 11 10 10 9 9 9
26 26 26 26 26 25 24 24 24 23 23 23 23 24 24 24 23 23 22 21 21 20 20 19 19 18 17 17 16 16 15 14 13 13 12 12 11 11 11 10 10 10 9 9
26 24 25 25 26 25 24 22 21 21 21 21 22 22 22 23 23 22 21 21 20 20 19 19 18 18 17 17 16 16 15 14 14 13 12 12 11 11 11 10 10 10 10 10
25 24 24 24 24 24 23 20 19 19 20 20 21 21 21 21 21 21 20 20 19 19 19 18 18 17 17 16 16 15 15 14 14 13 12 12 11 11 11 11 10 10 10 9
23 23 23 23 21 22 20 18 18 18 19 19 19 19 19 19 19 19 19 19 18 18 18 18 18 17 17 16 16 15 15 14 14 13 12 12 12 12 11 11 11 11 10 10
Wind_Speed
5 7 7 6 6 8 8 7 5 1 1 4 5 5 7 9 8 8 8 8 8 8 8 8 8 7 7 7 7 6 6 6 4 3 3 2 2 1 1 1 1 2 4 4
7 7 5 5 5 6 7 6 3 2 2 3 4 5 6 8 8 7 7 8 8 9 9 9 9 8 8 8 7 7 7 6 6 3 2 2 2 3 2 2 1 3 3 4
10 6 3 5 5 6 6 5 4 2 3 4 4 6 7 7 7 8 8 8 9 10 11 11 11 10 10 9 9 7 7 6 6 5 4 3 3 4 4 4 3 3 5 5
7 3 4 6 5 6 4 2 2 4 5 1 3 2 6 8 9 11 11 11 11 11 11 11 11 11 11 10 9 8 8 7 6 6 6 6 6 7 6 5 5 5 6 6
5 4 6 6 3 4 1 1 3 5 5 3 2 4 4 6 8 11 13 13 12 12 12 11 11 11 10 10 9 9 8 8 7 6 6 6 7 7 6 6 6 7 7 6
7 4 4 2 1 1 5 4 5 6 6 2 2 4 2 4 6 10 12 13 12 12 12 11 10 10 10 9 9 8 8 7 6 6 6 6 6 7 8 8 8 8 6 6
5 5 3 3 3 5 6 6 4 3 2 2 2 3 3 4 6 8 11 13 12 12 11 11 11 10 10 9 8 7 7 6 6 6 6 5 6 7 8 8 8 8 8 7
6 4 3 4 5 3 4 6 5 6 6 3 2 2 3 5 6 7 9 10 11 11 11 10 10 9 8 8 7 7 6 6 5 5 4 5 5 7 7 6 8 9 8 8
5 3 2 2 3 4 3 4 5 5 4 3 2 1 3 7 8 10 11 11 12 11 11 10 9 8 8 7 7 6 5 5 5 4 4 5 6 7 7 8 9 9 8 9
4 6 2 3 5 2 4 3 3 5 5 4 1 1 2 6 9 11 12 12 11 11 10 9 8 8 7 7 6 6 5 5 4 5 5 5 6 7 7 8 9 9 10 10
4 5 3 4 5 4 4 4 4 4 5 6 4 2 3 3 7 9 11 11 11 11 10 9 9 8 8 7 7 6 5 5 5 5 5 6 7 7 8 9 9 9 9 10
2 5 6 3 1 2 5 4 5 6 5 5 7 3 6 4 5 7 8 9 10 9 9 9 10 9 8 8 6 6 5 5 5 5 6 7 7 8 9 10 10 10 10 10
3 4 6 4 6 6 5 4 6 7 7 7 9 4 7 5 5 7 8 9 10 10 10 10 10 9 8 7 6 5 5 5 5 6 7 7 8 9 9 10 10 10 10 11
4 6 8 8 6 4 5 6 6 8 10 10 9 9 4 4 6 8 9 9 10 11 11 11 10 9 8 7 6 5 5 5 5 6 7 8 9 9 10 10 10 10 11 11
5 10 10 10 8 8 9 10 9 11 12 12 11 10 8 4 4 6 7 9 10 11 11 11 10 9 8 7 6 6 5 5 6 7 8 9 9 9 10 10 10 11 11 12
5 10 12 13 11 10 12 12 11 10 10 11 11 10 4 1 3 5 7 9 10 11 11 11 10 9 9 8 7 6 6 5 6 7 8 9 9 10 10 10 11 11 11 12
7 8 12 13 10 10 12 10 7 6 6 8 9 5 1 1 3 5 7 9 10 10 10 10 10 10 8 8 7 6 6 6 6 7 8 9 9 10 10 11 11 11 12 12
8 9 8 11 9 12 7 2 4 6 7 7 7 5 3 3 3 4 6 8 9 9 9 10 9 9 8 7 7 6 6 6 7 8 8 9 9 10 10 11 11 12 11 11
7 8 8 9 11 10 7 5 6 6 8 5 5 4 3 1 4 7 9 10 10 9 9 9 9 8 8 7 7 6 7 7 8 8 8 9 9 10 11 11 11 11 11 12
5 8 8 7 9 8 1 3 1 5 8 1 2 4 4 4 7 5 5 9 9 9 8 8 8 8 8 8 7 7 7 8 8 8 8 8 9 10 11 12 12 11 11 12
5 6 8 10 9 7 4 3 3 6 4 6 4 6 6 8 8 4 3 6 8 9 10 10 9 9 9 8 8 8 8 8 8 7 8 9 9 10 11 12 11 11 11 12
7 6 6 6 8 3 6 0 2 6 9 9 9 9 9 10 10 6 5 5 7 9 10 11 10 9 8 8 9 9 9 8 7 7 9 9 10 10 10 11 11 11 11 12
7 6 5 4 3 4 3 4 6 8 10 11 11 11 10 11 10 9 7 7 7 8 9 10 10 9 9 9 9 10 9 7 7 8 9 10 10 10 10 11 11 11 10 10
5 1 4 5 5 4 4 6 8 9 10 11 11 10 10 9 9 7 6 6 7 7 8 8 9 10 9 9 10 10 8 8 8 9 10 10 10 11 10 9 10 10 10 10
4 3 6 9 6 5 4 10 12 11 10 10 9 9 8 7 6 5 4 5 5 5 6 6 7 8 9 8 9 9 9 8 9 10 10 10 10 10 9 10 9 11 10 9
2 4 6 4 5 5 6 10 11 11 11 11 11 10 9 8 6 5 4 2 2 3 4 5 6 7 8 8 8 8 9 9 10 10 10 9 9 8 9 10 10 10 12 11
Wind_Direction
223 252 275 311 300 300 301 298 303 16 129 235 230 208 177 184 195 190 183 174 174 171 166 165 167 168 168 169 173 176 175 168 182 189 206 210 223 240 264 298 15 330 328 327
246 261 299 300 280 268 273 279 278 146 175 243 219 211 188 195 201 198 191 184 183 178 175 179 183 184 186 184 186 189 192 192 204 202 226 254 284 272 282 296 295 305 315 309
274 321 329 271 262 266 275 293 300 260 177 203 233 202 188 192 198 198 200 195 191 190 187 189 192 194 195 196 198 200 202 205 214 215 227 230 236 254 261 276 277 301 303 301
273 288 277 273 277 285 296 351 254 211 228 203 263 277 167 186 195 199 200 199 199 197 197 196 196 201 204 205 205 208 211 214 215 221 241 256 273 288 302 300 302 301 289 295
286 285 283 282 311 292 2 144 217 225 251 259 254 295 123 172 200 201 199 198 200 199 201 202 205 209 212 212 212 211 213 216 218 228 238 252 270 286 292 295 290 290 291 286
276 269 277 303 19 178 152 181 200 222 241 269 20 303 106 157 191 188 191 195 199 200 204 208 212 213 216 216 216 216 214 219 219 225 237 253 275 286 294 294 296 292 292 289
249 216 186 195 184 170 220 262 265 248 252 47 85 288 59 128 169 181 184 189 196 201 204 207 211 213 214 215 215 215 212 216 217 225 239 253 270 279 278 286 293 295 297 295
279 248 179 206 262 269 244 286 320 330 344 12 155 336 93 145 165 183 189 189 192 198 202 206 210 211 210 206 201 203 207 214 217 226 241 258 267 276 286 291 297 296 296 299
292 296 133 199 244 265 242 265 324 296 295 302 45 40 152 165 183 188 191 192 194 196 196 199 195 194 190 188 188 192 195 204 216 233 246 258 267 279 289 289 279 285 291 292
291 289 248 159 179 174 295 275 260 294 322 319 354 3 68 177 189 188 192 195 193 189 191 186 179 178 176 175 174 179 191 208 227 242 257 268 271 273 278 284 292 293 292 290
280 280 254 218 239 237 192 217 259 284 309 309 325 20 83 172 192 196 197 198 195 193 188 178 173 169 170 174 178 187 199 218 240 258 263 273 276 281 283 283 284 286 287 289
258 286 290 263 142 272 252 257 244 274 282 280 298 328 125 174 197 201 202 194 193 192 183 175 172 172 177 185 193 203 218 237 255 264 266 271 277 280 283 286 288 287 285 285
196 264 273 211 185 189 221 236 259 272 277 272 280 309 130 180 212 207 209 200 191 187 182 178 178 182 188 196 206 221 236 252 265 268 268 274 279 284 286 289 289 288 286 285
236 266 283 298 308 294 265 250 247 263 268 275 274 292 281 233 223 213 208 204 195 188 186 187 186 191 196 203 212 228 243 257 267 273 275 279 284 288 289 289 289 287 287 286
236 261 265 273 278 276 279 280 270 260 270 280 289 292 301 295 242 218 206 198 196 193 193 194 196 196 200 208 216 229 242 254 268 275 279 283 287 288 286 286 287 288 287 286
233 270 272 266 260 264 271 273 275 267 263 267 276 282 312 297 223 211 205 203 205 204 204 201 202 203 207 213 221 229 239 252 260 271 280 286 289 288 287 288 289 290 290 290
241 253 265 267 264 264 263 262 266 258 254 265 277 305 31 239 228 224 215 215 218 215 209 205 206 209 212 214 219 227 237 250 260 271 280 285 288 289 290 292 294 293 293 292
246 247 254 263 263 258 270 265 268 271 272 265 274 286 268 277 268 237 226 223 224 220 211 207 209 210 210 209 213 223 238 249 261 272 279 285 289 291 292 292 292 293 293 292
230 230 248 257 256 256 254 224 235 255 275 272 266 270 250 228 250 240 217 219 225 223 214 209 210 211 207 207 212 219 239 253 264 273 281 288 292 293 293 293 295 296 295 293
191 221 243 243 262 267 307 86 151 262 265 282 242 264 246 213 273 295 175 204 218 215 205 203 202 203 202 208 210 222 242 256 267 277 284 289 290 290 291 293 294 295 294 291
200 208 235 245 253 261 41 91 193 249 352 15 312 286 261 244 273 313 185 198 207 208 204 201 202 204 206 204 206 225 246 257 269 278 281 283 286 287 285 288 290 291 292 293
254 242 229 243 251 264 64 102 276 342 346 332 317 301 284 268 268 257 234 210 205 206 208 205 205 210 207 203 209 230 246 258 266 269 273 278 283 286 290 289 288 288 290 290
247 285 287 269 296 39 13 338 340 337 322 319 317 310 297 280 272 258 243 229 220 216 214 211 211 215 212 208 216 234 246 251 257 264 271 278 282 283 284 285 287 287 284 287
212 167 264 266 274 319 352 7 355 344 328 320 317 314 305 289 282 272 250 236 228 223 218 215 215 219 219 216 222 234 245 245 250 259 268 273 277 280 282 283 283 287 292 296
315 256 268 265 284 307 24 15 359 352 350 347 344 339 331 313 301 289 264 247 237 226 218 214 218 226 230 226 229 235 237 238 248 256 263 269 273 277 281 279 278 283 287 292
326 287 277 304 14 340 357 8 5 9 12 11 9 10 8 358 342 333 316 299 271 240 223 222 225 230 234 233 234 237 237 233 242 252 258 268 274 278 279 283 284 253 247 254
Height
1518 1515 1509 1506 1506 1507 1507 1508 1508 1509 1512 1512 1512 1514 1518 1523 1525 1527 1529 1532 1535 1537 1538 1540 1541 1542 1543 1544 1545 1547 1548 1548 1549 1550 1551 1551 1550 1550 1549 1548 1545 1544 1543 1541
1513 1509 1505 1506 1507 1507 1507 1509 1508 1511 1513 1512 1513 1514 1517 1521 1524 1526 1528 1530 1533 1536 1538 1539 1541 1542 1543 1544 1545 1546 1547 1548 1548 1549 1549 1548 1548 1548 1547 1546 1543 1541 1540 1538
1510 1505 1506 1506 1505 1506 1505 1506 1507 1509 1512 1511 1512 1514 1516 1519 1523 1526 1527 1529 1531 1534 1536 1538 1540 1541 1542 1543 1544 1545 1546 1546 1547 1547 1547 1546 1546 1545 1545 1543 1541 1539 1537 1535
1504 1503 1505 1504 1503 1503 1505 1505 1506 1509 1510 1508 1511 1515 1512 1514 1519 1522 1525 1527 1529 1532 1534 1537 1538 1540 1541 1542 1543 1543 1544 1544 1544 1544 1545 1545 1544 1544 1542 1540 1539 1536 1534 1532
1502 1502 1503 1503 1503 1503 1505 1506 1505 1506 1506 1507 1508 1510 1509 1511 1515 1516 1520 1523 1526 1529 1532 1534 1536 1538 1539 1540 1541 1541 1541 1542 1542 1541 1541 1541 1541 1540 1539 1537 1535 1532 1531 1529
1500 1501 1501 1501 1503 1503 1505 1506 1506 1503 1500 1512 1511 1511 1511 1506 1509 1510 1515 1519 1523 1526 1529 1532 1534 1535 1536 1537 1538 1539 1539 1539 1539 1538 1538 1537 1537 1535 1534 1533 1531 1530 1529 1527
1500 1498 1500 1502 1502 1505 1504 1505 1509 1510 1510 1512 1508 1509 1507 1503 1505 1508 1512 1516 1520 1523 1526 1528 1530 1532 1533 1534 1535 1536 1536 1536 1535 1535 1535 1534 1533 1531 1530 1529 1528 1526 1525 1524
1504 1503 1496 1498 1498 1499 1500 1501 1513 1522 1516 1506 1505 1507 1500 1501 1505 1509 1511 1514 1517 1520 1523 1525 1527 1529 1530 1531 1532 1533 1533 1533 1533 1532 1531 1530 1529 1528 1528 1526 1524 1523 1521 1520
1501 1502 1495 1497 1497 1497 1498 1497 1494 1502 1504 1508 1503 1500 1496 1500 1503 1506 1509 1512 1514 1517 1520 1522 1524 1526 1527 1528 1529 1530 1530 1530 1529 1529 1528 1526 1525 1524 1523 1521 1519 1519 1517 1515
1496 1503 1494 1495 1497 1499 1496 1494 1500 1502 1516 1515 1507 1503 1499 1497 1498 1500 1504 1507 1510 1514 1517 1519 1521 1523 1525 1526 1526 1527 1527 1526 1526 1525 1524 1524 1522 1520 1519 1517 1516 1514 1512 1510
1495 1502 1496 1493 1495 1494 1500 1499 1499 1497 1502 1512 1513 1503 1488 1491 1493 1495 1499 1503 1507 1510 1513 1516 1519 1520 1522 1523 1523 1523 1523 1523 1522 1522 1520 1519 1518 1517 1515 1514 1512 1510 1508 1506
1497 1496 1498 1493 1491 1492 1492 1493 1497 1506 1506 1504 1505 1499 1485 1488 1490 1493 1496 1500 1504 1508 1511 1514 1516 1517 1518 1520 1521 1521 1521 1520 1519 1518 1517 1516 1514 1513 1511 1510 1508 1506 1504 1502
1498 1501 1504 1500 1499 1495 1492 1492 1492 1493 1496 1500 1504 1497 1486 1488 1490 1492 1495 1498 1502 1506 1508 1511 1513 1514 1516 1517 1517 1518 1517 1517 1516 1515 1514 1512 1511 1510 1508 1506 1504 1502 1499 1497
1498 1497 1501 1505 1497 1489 1491 1490 1491 1493 1497 1495 1494 1490 1483 1484 1487 1490 1493 1496 1500 1503 1505 1507 1509 1511 1512 1513 1514 1514 1514 1513 1513 1512 1511 1509 1508 1506 1504 1502 1500 1497 1495 1493
1497 1495 1491 1488 1485 1486 1488 1488 1486 1490 1490 1491 1487 1484 1480 1480 1483 1487 1490 1494 1497 1500 1502 1504 1506 1508 1509 1510 1510 1510 1510 1510 1509 1508 1507 1506 1504 1502 1499 1497 1495 1493 1491 1488
1495 1495 1491 1490 1483 1484 1487 1484 1482 1483 1483 1484 1483 1482 1477 1481 1485 1487 1489 1491 1494 1496 1499 1501 1502 1504 1505 1506 1506 1506 1506 1506 1505 1504 1503 1502 1500 1498 1496 1493 1491 1489 1486 1484
1489 1494 1495 1491 1481 1484 1489 1478 1477 1478 1477 1479 1480 1478 1478 1480 1483 1485 1487 1489 1491 1493 1495 1497 1499 1500 1501 1502 1502 1502 1503 1502 1501 1500 1499 1498 1496 1494 1492 1490 1487 1484 1481 1479
1489 1491 1490 1487 1488 1501 1480 1469 1472 1475 1474 1473 1475 1475 1478 1480 1482 1483 1485 1486 1488 1490 1492 1493 1495 1496 1497 1498 1498 1499 1499 1498 1498 1497 1495 1494 1492 1490 1487 1485 1482 1479 1476 1474
1488 1489 1486 1486 1488 1484 1472 1469 1471 1474 1474 1469 1472 1474 1476 1479 1480 1480 1481 1483 1485 1487 1488 1490 1491 1493 1494 1494 1495 1495 1495 1495 1494 1493 1492 1490 1488 1485 1483 1480 1478 1475 1472 1468
1488 1487 1485 1485 1492 1491 1474 1468 1471 1474 1476 1468 1471 1473 1474 1478 1476 1473 1476 1479 1481 1483 1484 1486 1487 1488 1489 1490 1491 1491 1491 1491 1490 1489 1488 1486 1483 1480 1478 1475 1472 1470 1467 1463
1482 1485 1483 1482 1485 1475 1468 1471 1473 1481 1478 1472 1472 1472 1473 1474 1474 1474 1474 1476 1477 1479 1480 1481 1483 1484 1485 1486 1486 1486 1487 1486 1486 1485 1483 1481 1478 1476 1473 1470 1467 1465 1462 1459
1475 1475 1480 1479 1484 1480 1472 1471 1473 1475 1475 1474 1473 1473 1472 1472 1472 1472 1473 1473 1474 1475 1476 1478 1478 1480 1481 1481 1481 1482 1482 1482 1481 1479 1478 1476 1474 1471 1469 1466 1462 1460 1457 1453
1470 1469 1468 1472 1474 1474 1474 1475 1477 1477 1475 1474 1473 1471 1470 1469 1468 1469 1469 1470 1470 1471 1472 1473 1474 1475 1476 1477 1477 1477 1477 1477 1476 1475 1473 1471 1469 1466 1463 1461 1458 1455 1453 1450
1465 1472 1471 1472 1469 1472 1475 1476 1477 1476 1475 1473 1471 1469 1467 1466 1465 1465 1465 1465 1466 1467 1468 1469 1469 1471 1472 1472 1472 1472 1472 1471 1470 1469 1468 1466 1464 1462 1459 1456 1454 1452 1449 1446
1468 1470 1470 1472 1471 1473 1474 1477 1477 1475 1473 1471 1469 1467 1465 1464 1463 1462 1462 1462 1463 1463 1464 1464 1465 1466 1467 1468 1468 1468 1467 1466 1465 1464 1462 1461 1459 1457 1454 1451 1449 1446 1443 1441
1472 1473 1472 1471 1477 1477 1479 1479 1477 1475 1472 1470 1468 1465 1464 1463 1461 1461 1460 1460 1460 1460 1460 1461 1461 1461 1462 1462 1462 1462 1462 1460 1459 1457 1457 1456 1454 1452 1449 1447 1444 1440 1438 1434